Time,TemperatureF,DewpointF,PressureIn,WindDirection,WindDirectionDegrees,WindSpeedMPH,WindSpeedGustMPH,Humidity,HourlyPrecipIn,Conditions,Clouds,dailyrainin,SoftwareType,DateUTC
2013-08-08 00:00:00,72.3,68.2,29.96,NE,38,1.0,4.0,87,0.00,,,0.00,VWS V14.01,2013-08-08 04:00:00,
2013-08-08 00:10:00,72.4,68.3,29.96,ENE,63,1.0,3.0,87,0.00,,,0.00,VWS V14.01,2013-08-08 04:10:00,
2013-08-08 00:20:00,72.4,68.3,29.95,NNE,29,0.0,2.0,87,0.00,,,0.00,VWS V14.01,2013-08-08 04:20:00,
2013-08-08 00:30:00,72.4,68.3,29.95,NE,40,0.0,3.0,87,0.00,,,0.00,VWS V14.01,2013-08-08 04:30:00,
2013-08-08 00:40:00,72.4,68.3,29.95,West,276,1.0,3.0,87,0.00,,,0.00,VWS V14.01,2013-08-08 04:40:00,
2013-08-08 00:50:00,72.3,68.6,29.95,WNW,297,1.0,2.0,88,0.00,,,0.00,VWS V14.01,2013-08-08 04:50:00,
2013-08-08 01:00:00,72.3,68.6,29.95,WNW,301,1.0,2.0,88,0.00,,,0.00,VWS V14.01,2013-08-08 05:00:00,
2013-08-08 01:10:00,72.3,68.6,29.95,NNE,17,0.0,2.0,88,0.00,,,0.00,VWS V14.01,2013-08-08 05:10:00,
2013-08-08 01:20:00,72.2,68.4,29.95,WNW,292,0.0,3.0,88,0.00,,,0.00,VWS V14.01,2013-08-08 05:20:00,
2013-08-08 01:30:00,72.2,68.4,29.94,WNW,293,2.0,4.0,88,0.00,,,0.00,VWS V14.01,2013-08-08 05:30:00,
2013-08-08 01:40:00,72.1,68.3,29.94,NNE,32,0.0,2.0,88,0.00,,,0.00,VWS V14.01,2013-08-08 05:40:00,
2013-08-08 01:50:00,72.1,68.7,29.94,West,266,0.0,3.0,89,0.00,,,0.00,VWS V14.01,2013-08-08 05:50:00,
2013-08-08 02:00:00,72.1,68.7,29.94,NNW,333,1.0,2.0,89,0.00,,,0.00,VWS V14.01,2013-08-08 06:00:00,
2013-08-08 02:10:00,72.1,68.7,29.94,WNW,303,1.0,3.0,89,0.00,,,0.00,VWS V14.01,2013-08-08 06:10:00,
2013-08-08 02:20:00,72.1,68.7,29.94,NE,51,0.0,6.0,89,0.00,,,0.00,VWS V14.01,2013-08-08 06:20:00,
2013-08-08 02:30:00,72.1,69.0,29.93,North,350,1.0,3.0,90,0.00,,,0.00,VWS V14.01,2013-08-08 06:30:00,
2013-08-08 02:40:00,72.1,69.0,29.93,NW,316,1.0,2.0,90,0.00,,,0.00,VWS V14.01,2013-08-08 06:40:00,
2013-08-08 02:50:00,72.1,69.0,29.93,SW,235,0.0,2.0,90,0.00,,,0.00,VWS V14.01,2013-08-08 06:50:00,
2013-08-08 03:00:00,72.1,69.0,29.93,NW,306,0.0,2.0,90,0.00,,,0.00,VWS V14.01,2013-08-08 07:00:00,
2013-08-08 03:10:00,72.1,69.3,29.93,WSW,240,0.0,2.0,91,0.00,,,0.00,VWS V14.01,2013-08-08 07:10:00,
2013-08-08 03:20:00,72.1,69.0,29.93,WSW,237,1.0,3.0,90,0.00,,,0.00,VWS V14.01,2013-08-08 07:20:00,
2013-08-08 03:30:00,72.1,69.0,29.93,WSW,243,1.0,3.0,90,0.00,,,0.00,VWS V14.01,2013-08-08 07:30:00,
2013-08-08 03:40:00,72.1,69.0,29.93,WNW,283,1.0,3.0,90,0.00,,,0.00,VWS V14.01,2013-08-08 07:40:00,
2013-08-08 03:50:00,72.2,69.1,29.93,NNW,333,0.0,2.0,90,0.00,,,0.00,VWS V14.01,2013-08-08 07:50:00,
2013-08-08 04:00:00,72.1,69.3,29.93,NW,323,1.0,3.0,91,0.00,,,0.00,VWS V14.01,2013-08-08 08:00:00,
2013-08-08 04:10:00,72.1,69.7,29.93,West,272,0.0,2.0,92,0.00,,,0.00,VWS V14.01,2013-08-08 08:10:00,
2013-08-08 04:20:00,72.0,69.9,29.93,NNW,332,0.0,3.0,93,0.01,,,0.01,VWS V14.01,2013-08-08 08:20:00,
2013-08-08 04:30:00,71.7,69.9,29.92,West,270,1.0,3.0,94,0.05,,,0.05,VWS V14.01,2013-08-08 08:30:00,
2013-08-08 04:40:00,71.3,69.8,29.92,WNW,290,1.0,2.0,95,0.11,,,0.11,VWS V14.01,2013-08-08 08:40:00,
2013-08-08 04:50:00,71.0,69.8,29.92,WNW,292,1.0,3.0,96,0.14,,,0.14,VWS V14.01,2013-08-08 08:50:00,
2013-08-08 05:00:00,70.7,69.5,29.92,West,260,1.0,3.0,96,0.15,,,0.15,VWS V14.01,2013-08-08 09:00:00,
2013-08-08 05:10:00,70.5,69.3,29.92,WNW,282,1.0,4.0,96,0.15,,,0.15,VWS V14.01,2013-08-08 09:10:00,
2013-08-08 05:20:00,70.3,69.4,29.93,WNW,294,2.0,5.0,97,0.16,,,0.16,VWS V14.01,2013-08-08 09:20:00,
2013-08-08 05:30:00,70.0,68.8,29.93,SW,215,1.0,4.0,96,0.15,,,0.16,VWS V14.01,2013-08-08 09:30:00,
2013-08-08 05:40:00,69.7,68.8,29.93,WSW,253,0.0,3.0,97,0.11,,,0.16,VWS V14.01,2013-08-08 09:40:00,
2013-08-08 05:50:00,69.5,68.6,29.93,SW,235,5.0,5.0,97,0.05,,,0.16,VWS V14.01,2013-08-08 09:50:00,
2013-08-08 06:00:00,69.2,68.3,29.93,West,275,1.0,5.0,97,0.02,,,0.16,VWS V14.01,2013-08-08 10:00:00,
2013-08-08 06:10:00,68.9,67.7,29.93,ESE,121,0.0,3.0,96,0.01,,,0.16,VWS V14.01,2013-08-08 10:10:00,
2013-08-08 06:20:00,68.5,67.3,29.93,WSW,254,2.0,2.0,96,0.01,,,0.16,VWS V14.01,2013-08-08 10:20:00,
2013-08-08 06:30:00,68.3,67.4,29.93,West,280,1.0,4.0,97,0.00,,,0.16,VWS V14.01,2013-08-08 10:30:00,
2013-08-08 06:40:00,68.2,67.3,29.93,West,281,0.0,3.0,97,0.00,,,0.16,VWS V14.01,2013-08-08 10:40:00,
2013-08-08 06:50:00,68.2,67.3,29.93,West,272,1.0,2.0,97,0.00,,,0.16,VWS V14.01,2013-08-08 10:50:00,
2013-08-08 07:00:00,68.3,67.4,29.93,West,272,0.0,2.0,97,0.00,,,0.16,VWS V14.01,2013-08-08 11:00:00,
2013-08-08 07:10:00,68.3,67.7,29.93,NNE,26,0.0,1.0,98,0.00,,,0.16,VWS V14.01,2013-08-08 11:10:00,
2013-08-08 07:20:00,68.4,67.8,29.93,NNE,26,1.0,2.0,98,0.00,,,0.16,VWS V14.01,2013-08-08 11:20:00,
2013-08-08 07:30:00,68.6,68.0,29.94,NW,324,0.0,2.0,98,0.00,,,0.16,VWS V14.01,2013-08-08 11:30:00,
2013-08-08 07:40:00,68.8,68.2,29.94,NW,324,1.0,2.0,98,0.00,,,0.16,VWS V14.01,2013-08-08 11:40:00,
2013-08-08 07:50:00,69.1,68.5,29.93,North,360,2.0,3.0,98,0.00,,,0.16,VWS V14.01,2013-08-08 11:50:00,
2013-08-08 08:00:00,69.3,69.0,29.93,WSW,244,2.0,2.0,99,0.00,,,0.16,VWS V14.01,2013-08-08 12:00:00,
2013-08-08 08:10:00,69.4,68.8,29.93,North,9,1.0,3.0,98,0.00,,,0.16,VWS V14.01,2013-08-08 12:10:00,
2013-08-08 08:20:00,69.5,68.9,29.92,NNE,32,1.0,3.0,98,0.01,,,0.17,VWS V14.01,2013-08-08 12:20:00,
2013-08-08 08:30:00,69.7,69.1,29.93,WSW,241,0.0,4.0,98,0.01,,,0.17,VWS V14.01,2013-08-08 12:30:00,
2013-08-08 08:40:00,69.9,69.3,29.93,WSW,258,0.0,3.0,98,0.01,,,0.17,VWS V14.01,2013-08-08 12:40:00,
2013-08-08 08:50:00,70.1,69.8,29.94,NW,309,1.0,4.0,99,0.01,,,0.17,VWS V14.01,2013-08-08 12:50:00,
2013-08-08 09:00:00,70.2,69.6,29.94,NE,52,1.0,3.0,98,0.01,,,0.17,VWS V14.01,2013-08-08 13:00:00,
2013-08-08 09:10:00,70.1,69.5,29.94,NW,307,1.0,4.0,98,0.01,,,0.17,VWS V14.01,2013-08-08 13:10:00,
2013-08-08 09:20:00,70.3,69.7,29.93,WSW,250,0.0,2.0,98,0.01,,,0.17,VWS V14.01,2013-08-08 13:20:00,
2013-08-08 09:30:00,70.7,70.1,29.93,North,355,2.0,3.0,98,0.00,,,0.17,VWS V14.01,2013-08-08 13:30:00,
2013-08-08 09:40:00,71.2,70.9,29.93,NNE,24,0.0,3.0,99,0.00,,,0.17,VWS V14.01,2013-08-08 13:40:00,
2013-08-08 09:50:00,71.4,70.8,29.94,NE,42,2.0,6.0,98,0.00,,,0.17,VWS V14.01,2013-08-08 13:50:00,
2013-08-08 10:00:00,71.3,70.4,29.94,NNW,348,0.0,5.0,97,0.00,,,0.17,VWS V14.01,2013-08-08 14:00:00,
2013-08-08 10:10:00,71.3,70.1,29.94,SW,219,2.0,5.0,96,0.00,,,0.17,VWS V14.01,2013-08-08 14:10:00,
2013-08-08 10:20:00,71.2,70.0,29.94,NW,309,0.0,2.0,96,0.00,,,0.17,VWS V14.01,2013-08-08 14:20:00,
2013-08-08 10:30:00,71.1,70.2,29.94,WNW,289,0.0,5.0,97,0.00,,,0.17,VWS V14.01,2013-08-08 14:30:00,
2013-08-08 10:40:00,71.1,70.2,29.94,NNE,16,0.0,6.0,97,0.00,,,0.17,VWS V14.01,2013-08-08 14:40:00,
2013-08-08 10:50:00,71.1,70.2,29.94,WNW,299,1.0,4.0,97,0.00,,,0.17,VWS V14.01,2013-08-08 14:50:00,
2013-08-08 11:00:00,71.3,70.4,29.94,West,281,0.0,5.0,97,0.00,,,0.17,VWS V14.01,2013-08-08 15:00:00,
2013-08-08 11:10:00,71.7,71.1,29.94,NW,313,1.0,3.0,98,0.00,,,0.17,VWS V14.01,2013-08-08 15:10:00,
2013-08-08 11:20:00,72.1,71.2,29.93,NNW,340,2.0,4.0,97,0.00,,,0.17,VWS V14.01,2013-08-08 15:20:00,
2013-08-08 11:30:00,72.2,71.3,29.93,West,265,1.0,5.0,97,0.00,,,0.17,VWS V14.01,2013-08-08 15:30:00,
2013-08-08 11:40:00,72.5,71.6,29.93,SSW,207,1.0,4.0,97,0.00,,,0.17,VWS V14.01,2013-08-08 15:40:00,
2013-08-08 11:50:00,72.5,71.0,29.93,WNW,288,1.0,4.0,95,0.00,,,0.17,VWS V14.01,2013-08-08 15:50:00,
2013-08-08 12:00:00,72.4,70.9,29.93,North,360,1.0,4.0,95,0.00,,,0.17,VWS V14.01,2013-08-08 16:00:00,
2013-08-08 12:10:00,72.4,70.9,29.93,NNE,17,0.0,4.0,95,0.00,,,0.17,VWS V14.01,2013-08-08 16:10:00,
2013-08-08 12:20:00,72.7,71.5,29.93,WSW,250,2.0,5.0,96,0.00,,,0.17,VWS V14.01,2013-08-08 16:20:00,
2013-08-08 12:30:00,73.3,71.8,29.92,WSW,257,0.0,5.0,95,0.00,,,0.17,VWS V14.01,2013-08-08 16:30:00,
2013-08-08 12:40:00,73.6,71.8,29.92,WSW,250,1.0,3.0,94,0.00,,,0.17,VWS V14.01,2013-08-08 16:40:00,
2013-08-08 12:50:00,73.6,71.1,29.92,WNW,299,2.0,5.0,92,0.00,,,0.17,VWS V14.01,2013-08-08 16:50:00,
2013-08-08 13:00:00,73.3,70.8,29.93,North,360,1.0,3.0,92,0.00,,,0.17,VWS V14.01,2013-08-08 17:00:00,
2013-08-08 13:10:00,73.2,71.4,29.93,North,9,1.0,3.0,94,0.00,,,0.17,VWS V14.01,2013-08-08 17:10:00,
2013-08-08 13:20:00,73.7,71.9,29.93,WSW,244,1.0,4.0,94,0.00,,,0.17,VWS V14.01,2013-08-08 17:20:00,
2013-08-08 13:30:00,74.3,72.5,29.93,ENE,75,0.0,4.0,94,0.00,,,0.17,VWS V14.01,2013-08-08 17:30:00,
2013-08-08 13:40:00,74.8,72.0,29.93,NNE,32,2.0,3.0,91,0.00,,,0.17,VWS V14.01,2013-08-08 17:40:00,
2013-08-08 13:50:00,75.4,72.3,29.92,ENE,57,0.0,3.0,90,0.00,,,0.17,VWS V14.01,2013-08-08 17:50:00,
2013-08-08 14:00:00,76.0,72.5,29.92,North,5,2.0,4.0,89,0.00,,,0.17,VWS V14.01,2013-08-08 18:00:00,
2013-08-08 14:10:00,76.3,72.5,29.92,NNE,24,2.0,5.0,88,0.00,,,0.17,VWS V14.01,2013-08-08 18:10:00,
2013-08-08 14:20:00,76.6,73.1,29.93,WSW,253,1.0,6.0,89,0.00,,,0.17,VWS V14.01,2013-08-08 18:20:00,
2013-08-08 14:30:00,76.9,73.1,29.93,West,273,3.0,5.0,88,0.00,,,0.17,VWS V14.01,2013-08-08 18:30:00,
2013-08-08 14:40:00,76.8,73.0,29.93,SW,229,1.0,5.0,88,0.00,,,0.17,VWS V14.01,2013-08-08 18:40:00,
2013-08-08 14:50:00,77.1,73.6,29.93,SW,214,2.0,4.0,89,0.00,,,0.17,VWS V14.01,2013-08-08 18:50:00,
2013-08-08 15:00:00,77.1,72.6,29.93,West,262,1.0,4.0,86,0.00,,,0.17,VWS V14.01,2013-08-08 19:00:00,
2013-08-08 15:10:00,76.9,72.7,29.93,NNE,32,1.0,4.0,87,0.00,,,0.17,VWS V14.01,2013-08-08 19:10:00,
2013-08-08 15:20:00,77.0,72.8,29.92,SW,229,2.0,4.0,87,0.00,,,0.17,VWS V14.01,2013-08-08 19:20:00,
2013-08-08 15:30:00,77.5,73.3,29.92,NNE,32,2.0,4.0,87,0.00,,,0.17,VWS V14.01,2013-08-08 19:30:00,
2013-08-08 15:40:00,78.0,73.5,29.92,NNW,340,0.0,4.0,86,0.00,,,0.17,VWS V14.01,2013-08-08 19:40:00,
2013-08-08 15:50:00,78.0,73.1,29.92,WSW,252,1.0,4.0,85,0.00,,,0.17,VWS V14.01,2013-08-08 19:50:00,
2013-08-08 16:00:00,78.0,72.8,29.91,NNW,333,2.0,5.0,84,0.00,,,0.17,VWS V14.01,2013-08-08 20:00:00,
2013-08-08 16:10:00,78.2,73.0,29.91,SW,219,3.0,5.0,84,0.00,,,0.17,VWS V14.01,2013-08-08 20:10:00,
2013-08-08 16:20:00,78.2,73.3,29.91,North,355,1.0,4.0,85,0.00,,,0.17,VWS V14.01,2013-08-08 20:20:00,
2013-08-08 16:30:00,78.2,73.0,29.91,NNW,347,1.0,5.0,84,0.00,,,0.17,VWS V14.01,2013-08-08 20:30:00,
2013-08-08 16:40:00,78.2,73.0,29.91,North,9,2.0,4.0,84,0.00,,,0.17,VWS V14.01,2013-08-08 20:40:00,
2013-08-08 16:50:00,77.6,72.7,29.92,WNW,288,2.0,3.0,85,0.00,,,0.17,VWS V14.01,2013-08-08 20:50:00,
2013-08-08 17:00:00,76.9,72.1,29.92,WNW,286,1.0,6.0,85,0.00,,,0.17,VWS V14.01,2013-08-08 21:00:00,
2013-08-08 17:10:00,76.7,72.5,29.92,West,269,1.0,4.0,87,0.00,,,0.17,VWS V14.01,2013-08-08 21:10:00,
2013-08-08 17:20:00,76.4,72.2,29.92,SW,222,1.0,4.0,87,0.00,,,0.17,VWS V14.01,2013-08-08 21:20:00,
2013-08-08 17:30:00,76.3,72.2,29.90,NNE,31,2.0,6.0,87,0.00,,,0.17,VWS V14.01,2013-08-08 21:30:00,
2013-08-08 17:40:00,76.2,72.4,29.90,WNW,302,0.0,5.0,88,0.00,,,0.17,VWS V14.01,2013-08-08 21:40:00,
2013-08-08 17:50:00,76.1,72.3,29.90,SW,215,2.0,6.0,88,0.00,,,0.17,VWS V14.01,2013-08-08 21:50:00,
2013-08-08 18:00:00,76.2,72.7,29.90,WSW,239,1.0,4.0,89,0.00,,,0.17,VWS V14.01,2013-08-08 22:00:00,
2013-08-08 18:10:00,77.2,73.4,29.90,NNW,329,1.0,4.0,88,0.00,,,0.17,VWS V14.01,2013-08-08 22:10:00,
2013-08-08 18:20:00,77.6,72.7,29.90,WSW,238,1.0,5.0,85,0.00,,,0.17,VWS V14.01,2013-08-08 22:20:00,
2013-08-08 18:40:00,76.8,72.6,29.90,WSW,257,2.0,5.0,87,0.00,,,0.17,VWS V14.01,2013-08-08 22:40:00,
2013-08-08 18:50:00,76.2,72.4,29.90,NNW,333,2.0,5.0,88,0.00,,,0.17,VWS V14.01,2013-08-08 22:50:00,
2013-08-08 19:00:00,75.8,72.3,29.90,West,263,2.0,3.0,89,0.00,,,0.17,VWS V14.01,2013-08-08 23:00:00,
2013-08-08 19:10:00,75.3,71.8,29.90,SSW,211,2.0,3.0,89,0.00,,,0.17,VWS V14.01,2013-08-08 23:10:00,
2013-08-08 19:30:00,74.6,71.8,29.90,ENE,58,0.0,3.0,91,0.00,,,0.17,VWS V14.01,2013-08-08 23:30:00,
2013-08-08 19:40:00,74.5,71.7,29.90,WSW,256,1.0,3.0,91,0.00,,,0.17,VWS V14.01,2013-08-08 23:40:00,
2013-08-08 19:50:00,74.4,71.9,29.91,NNE,32,1.0,2.0,92,0.00,,,0.17,VWS V14.01,2013-08-08 23:50:00,
2013-08-08 20:00:00,74.2,71.7,29.91,NW,309,1.0,3.0,92,0.00,,,0.17,VWS V14.01,2013-08-09 00:00:00,
2013-08-08 20:10:00,74.1,71.6,29.91,WNW,292,1.0,3.0,92,0.00,,,0.17,VWS V14.01,2013-08-09 00:10:00,
2013-08-08 20:20:00,74.0,71.5,29.91,West,260,1.0,2.0,92,0.00,,,0.17,VWS V14.01,2013-08-09 00:20:00,
2013-08-08 20:40:00,73.8,71.3,29.91,WNW,288,1.0,3.0,92,0.00,,,0.17,VWS V14.01,2013-08-09 00:40:00,
2013-08-08 21:00:00,73.5,71.4,29.91,WSW,256,1.0,2.0,93,0.00,,,0.17,VWS V14.01,2013-08-09 01:00:00,
2013-08-08 21:10:00,73.4,71.3,29.91,West,267,0.0,4.0,93,0.00,,,0.17,VWS V14.01,2013-08-09 01:10:00,
2013-08-08 21:20:00,73.4,71.3,29.92,SW,223,0.0,3.0,93,0.00,,,0.17,VWS V14.01,2013-08-09 01:20:00,
2013-08-08 21:40:00,73.4,71.3,29.92,NNW,339,0.0,3.0,93,0.00,,,0.17,VWS V14.01,2013-08-09 01:40:00,
2013-08-08 21:50:00,73.4,71.3,29.92,WSW,241,0.0,3.0,93,0.00,,,0.17,VWS V14.01,2013-08-09 01:50:00,
2013-08-08 22:00:00,73.4,71.6,29.92,NNW,348,2.0,2.0,94,0.00,,,0.17,VWS V14.01,2013-08-09 02:00:00,
2013-08-08 22:10:00,73.4,71.6,29.92,West,259,1.0,2.0,94,0.00,,,0.17,VWS V14.01,2013-08-09 02:10:00,
2013-08-08 22:20:00,73.3,71.5,29.92,WSW,253,0.0,2.0,94,0.00,,,0.17,VWS V14.01,2013-08-09 02:20:00,
2013-08-08 22:40:00,73.2,71.4,29.92,WSW,252,0.0,4.0,94,0.00,,,0.17,VWS V14.01,2013-08-09 02:40:00,
2013-08-08 22:50:00,73.1,71.3,29.92,WNW,292,0.0,2.0,94,0.00,,,0.17,VWS V14.01,2013-08-09 02:50:00,
2013-08-08 23:00:00,73.1,71.3,29.92,NNE,17,0.0,2.0,94,0.00,,,0.17,VWS V14.01,2013-08-09 03:00:00,
2013-08-08 23:10:00,73.0,71.2,29.92,NE,43,0.0,2.0,94,0.00,,,0.17,VWS V14.01,2013-08-09 03:10:00,
2013-08-08 23:20:00,72.9,71.1,29.91,North,355,1.0,3.0,94,0.00,,,0.17,VWS V14.01,2013-08-09 03:20:00,
2013-08-08 23:30:00,72.9,71.1,29.91,North,355,1.0,3.0,94,0.00,,,0.17,VWS V14.01,2013-08-09 03:30:00,
2013-08-08 23:40:00,72.8,71.3,29.91,West,276,1.0,3.0,95,0.00,,,0.17,VWS V14.01,2013-08-09 03:40:00,
2013-08-08 23:50:00,72.9,71.4,29.91,SW,217,1.0,3.0,95,0.00,,,0.17,VWS V14.01,2013-08-09 03:50:00,